Skagway, AK

8:27 AM AKST on February 08, 2016 (GMT -0900)
Skagway

Weather History for PAGY - December, 2013

Change the Weather History Date:

Monday, December 2, 2013

  Actual Average Record
Temperature  
Mean Temperature 18 °F -  
Max Temperature 19 °F 33 °F 46 °F (2004)
Min Temperature 18 °F 26 °F -9 °F (1990)
Degree Days  
Heating Degree Days 46    
Moisture  
Dew Point -3 °F    
Average Humidity 37    
Maximum Humidity 40    
Minimum Humidity 34    
Precipitation  
Precipitation 0.00 in - - ()
Sea Level Pressure  
Sea Level Pressure 30.79 in    
Wind  
Wind Speed 23 mph (NE)    
Max Wind Speed 30 mph    
Max Gust Speed 52 mph    
Visibility 10 miles    
Events      
Averages and records for this station are not official NWS values.
T = Trace of Precipitation, MM = Missing Value Source: NWS Daily Summary

Daily Weather History Graph

Daily Weather History Graph

Search for Another Location

Airport or City:

Trip Planner

Search our weather history database for the weather conditions in past years. The results will help you decide how hot, cold, wet, or windy it might be!

Date:

Astronomy

Dec. 02, 2013 Rise Set
Actual Time 8:34 AM AKST 3:06 PM AKST
Civil Twilight 7:41 AM AKST 3:59 PM AKST
Nautical Twilight 6:47 AM AKST 4:53 PM AKST
Astronomical Twilight 5:57 AM AKST 5:43 PM AKST
Moon 7:58 AM AKST (12/2) 3:25 PM AKST (12/2)
Length of Visible Light 8h 18m
Length of Day
6h 31m
Waning Crescent, 0% of the Moon is Illuminated
Dec 2
Waning Crescent
Dec 2
New
Dec 9
First Quarter
Dec 17
Full
Dec 25
Last Quarter

Hourly Weather History & Observations

Time (AKST) Temp. Windchill Dew Point Humidity Pressure Visibility Wind Dir Wind Speed Gust Speed Precip Events Conditions
12:53 AM 19.0 °F 2.0 °F -4.0 °F 36% 30.73 in 10.0 mi NNE 23.0 mph 40.3 mph N/A   Clear
1:53 AM 19.0 °F 3.6 °F -5.1 °F 34% 30.75 in 10.0 mi North 18.4 mph 32.2 mph N/A   Clear
3:53 AM 18.0 °F 0.2 °F -4.0 °F 38% 30.75 in 10.0 mi NNE 24.2 mph 38.0 mph N/A   Clear
4:53 AM 18.0 °F -0.2 °F -4.0 °F 38% 30.75 in 10.0 mi NNE 25.3 mph 39.1 mph N/A   Clear
5:53 AM 18.0 °F 0.2 °F -4.0 °F 38% 30.78 in 10.0 mi NNE 24.2 mph 39.1 mph N/A   Clear
6:53 AM 19.0 °F 1.3 °F -2.9 °F 38% 30.79 in 10.0 mi NNE 25.3 mph 42.6 mph N/A   Clear
7:53 AM 19.0 °F 2.4 °F -2.9 °F 38% 30.80 in 10.0 mi NNE 21.9 mph 51.8 mph N/A   Clear
8:53 AM 19.0 °F 5.6 °F -2.9 °F 38% 30.82 in 10.0 mi NNE 13.8 mph 39.1 mph N/A   Clear
9:53 AM 19.0 °F 1.0 °F -2.9 °F 38% 30.81 in 10.0 mi NE 26.5 mph 39.1 mph N/A   Clear
10:53 AM 19.0 °F 1.6 °F -2.9 °F 38% 30.82 in 10.0 mi NNE 24.2 mph 38.0 mph N/A   Clear
11:53 AM 19.0 °F 0.6 °F -4.0 °F 36% 30.82 in 10.0 mi NE 27.6 mph 48.3 mph N/A   Clear
12:53 PM 19.9 °F 2.5 °F -4.0 °F 35% 30.82 in 10.0 mi NE 25.3 mph 36.8 mph 0.00 in   Clear
1:53 PM 19.9 °F 4.3 °F -4.0 °F 35% 30.82 in 10.0 mi NE 19.6 mph 34.5 mph N/A   Clear
2:53 PM 19.9 °F 3.5 °F -2.9 °F 37% 30.82 in 10.0 mi NE 21.9 mph 39.1 mph N/A   Clear
3:53 PM 19.9 °F 3.5 °F -4.0 °F 35% 30.81 in 10.0 mi NE 21.9 mph 35.7 mph N/A   Clear
4:53 PM 19.0 °F 1.3 °F -2.9 °F 38% 30.79 in 10.0 mi NE 25.3 mph 34.5 mph N/A   Clear
5:53 PM 19.0 °F 1.6 °F -2.9 °F 38% 30.79 in 10.0 mi NE 24.2 mph 38.0 mph N/A   Clear
6:53 PM 19.0 °F 0.0 °F -2.9 °F 38% 30.79 in 10.0 mi NE 29.9 mph 43.7 mph N/A   Clear
7:53 PM 19.0 °F 0.3 °F -2.0 °F 40% 30.78 in 10.0 mi NE 28.8 mph 38.0 mph N/A   Clear
8:53 PM 19.9 °F 4.3 °F -2.0 °F 38% 30.79 in 10.0 mi NE 19.6 mph 33.4 mph N/A   Clear
9:53 PM 19.9 °F 4.3 °F -2.0 °F 38% 30.78 in 10.0 mi NE 19.6 mph 28.8 mph N/A   Clear
10:53 PM 19.9 °F 4.8 °F -2.0 °F 38% 30.76 in 10.0 mi NE 18.4 mph 28.8 mph N/A   Clear
11:53 PM 19.9 °F 6.2 °F -2.0 °F 38% 30.74 in 10.0 mi NE 15.0 mph 25.3 mph N/A   Clear